Retour au catalogue

COSMOS 1878

ActifNavigationPO
NORAD 18337·PAYLOAD·🇷🇺 Russia

Lancé Sep 7, 1987 depuis Plesetsk Cosmodrome

Loading…

Prochains Passages (prochaines 24 heures)

TLE

FraisSource: Space-Track

Époque: Sep 14, 2026, 21:48 UTC

1 18337U 87074D   26257.90861653  .00000009  00000-0 -94126-5 0  9995
2 18337  82.5664 235.1355 0003951  41.6869 333.4287 12.64388489800631

Suivez COSMOS 1878 en temps réel avec AllMySat

Download on the App Store